星链-31435 (STARLINK-31435 )

导读 | 星芒AI

STARLINK-31435 是 SpaceX 星链计划中的一颗低轨通信卫星,属于第 12 批星链卫星(Batch 12)。该卫星于 2023 年 9 月发射,部署在约 550 公里的近地轨道,旨在为全球提供高速互联网服务。星链卫星采用可展开的太阳能板和先进推进系统,具备自主变轨和避障能力。该计划最终目标是构建由数千颗卫星组成的星座,提升偏远地区的网络覆盖。STARLINK-31435 的运行有助于增强星链网络的稳定性和服务能力。

基本信息
目录编号:
59004
目录名称:
STARLINK-31435
国际标识:
2024-036G
轨道中心:
EARTH
卫星名称:
星链-31435
卫星全名:
星链-31435 (STARLINK-31435 )
卫星状态:
在轨 (已飞行666 天)
发射日期:
2024-02-23 UTC
国别 :
美国 (US)
星等 :
--
轨道信息
数据来源 国际轨道数据
星历时间: 2025-12-19T19:06:09+0800
13小时前
查看轨道信息
半长轴: 6853.392km
偏心率: 0.0001232
轨道倾角: 53.162°
近地点辐角 95.558°
升交点赤经 90.529°
平近点角 264.557°
近地点: 474.41km
远地点: 476.1km
周期: 94.106分钟
每日圈数: 15.301868
详细信息
固有亮度:
5
最大亮度:
0.3
卫星平台:
Starlink v2.0 mini
覆盖范围:
全球
运营商:
太空探索技术公司
运营商所在国:
美国
制造商(研发单位):
太空探索技术公司
制造商所在国:
美国
使用方式:
暂无
卫星简介
星链(Starlink)计划是由太空探索技术公司(SpaceX)提出的一个巨型低轨卫星互联网星座项目,计划在2019年至2024年间在太空搭建由约1.2万颗卫星组成的“星链”网络,其中1584颗将部署在地球上空550千米处的近地轨道,并从2020年开始工作。该卫星仍在工作。
2D轨道图
3D轨道图
轨道高度分析图
轨道倾角分析图
轨道综合分析图
查看轨道综合分析图